sat.trackr.live / text

‹ back to catalog

STARLINK-34686

NORAD 65087 · 2025-167K

PAYLOAD ACTIVE UNKNOWN

§ Identity

Operator
Country
US
Launch date
2025-08-04
Launch site
AFETR
Launch vehicle
Mass (kg)
RCS (m²)

Purposes: comms

External: N2YO · Heavens-Above · Gunter

§ Orbital elements

Epoch: 2026-05-25T02:20:58.141824Z

Period
94.11 min
Inclination
53.1592°
Eccentricity
0.0001063
Mean motion
15.30204895 rev/d
Perigee alt
474.5 km
Apogee alt
475.9 km
Semi-major
6,853.3 km
B*
3.0107e-4
RAAN
32.0826°
Arg perigee
96.1709°
Mean anomaly
263.9413°
Rev number
4,517

§ Raw data

STARLINK-346861 65087U 25167K   26145.09789516  .00008569  00000+0  30107-3 0  99912 65087  53.1592  32.0826 0001063  96.1709 263.9413 15.30204895 45178

JSON: /api/v1/satellites/65087 · /tle

For live sub-satellite position, see the globe view (requires WebGL).

§ Visibility from observer

Set your observer location to see the next 7 days of passes ≥ 10°. The values pass through the URL so the page stays shareable.

No JS? Fill the form by hand. The geolocation button needs JavaScript.